[[{"header":{"parameterUnit":"m.s-1","parameterCategory":1,"la1":30.2991,"la2":30.254,"lo1":-89.0895,"lo2":-89.0444,"dy":0.0017,"dx":0.0017,"nx":28,"ny":28,"refTime":"2024-08-13T09:00:00:Z","depth":0,"parameterNumber":2,"parameterNumberName":"U-component_of_WINDS"},"data":[0,0,0,0,0,0,0,0,0,0,0,0,0,0,0,0,0,0,0,0,0,0,0,0,0,0,0,0,0,0,0,0,0,0,0,0,0,0,0,0,0,0,0,0,0,0,0,0,0,0,0,0,0,0,0,0,0,0,2.3721,2.3722,0,2.3786,2.3786,2.3787,2.3735,2.3733,2.373,2.3728,2.3794,2.3798,2.3801,0,0,0,0,0,0,0,0,0,0,0,0,0,2.3552,2.3556,2.3721,2.3722,2.3723,2.3785,2.3786,2.3787,2.3735,2.3733,2.373,2.3727,2.3793,2.3797,2.3802,0,0,0,0,0,0,0,0,0,0,0,0,0,2.3622,2.3557,2.3721,2.3705,2.3704,2.3785,2.3786,2.3787,2.3736,2.3733,2.3729,2.3726,2.3791,2.3797,2.3802,2.3904,0,0,2.382,2.3822,0,0,0,0,0,0,0,0,2.3618,2.3628,2.3706,2.3706,2.3705,2.3749,2.3751,2.3826,2.3737,2.3724,2.3728,2.3725,2.3782,2.3788,2.3807,2.3907,2.3909,2.382,2.3824,2.3826,2.3828,0,0,0,0,0,0,0,2.3614,2.3625,2.3747,2.3707,2.3707,2.3693,2.37,2.3765,2.377,2.3725,2.3721,2.3729,2.3781,2.3802,2.3808,2.391,2.382,2.3825,2.3829,2.3831,2.4094,2.4097,0,0,0,0,0,0,2.361,2.3622,2.3745,2.3749,2.3653,2.3699,2.3706,2.3738,2.3769,2.3771,2.3732,2.3727,2.3794,2.3802,2.381,2.3929,2.3826,2.3831,2.3835,2.409,2.4095,2.4098,0,0,0,0,0,0,2.3607,2.3622,2.3742,2.3684,2.3698,2.3706,2.3742,2.3741,2.3762,2.3775,2.3776,2.3753,2.3791,2.3802,2.388,2.3931,2.3834,2.3839,2.4086,2.4092,2.4097,2.4168,0,0,0,0,0,0,2.3602,2.3621,2.366,2.3686,2.3702,2.3812,2.3745,2.3745,2.3772,2.3766,2.3795,2.3796,2.379,2.3872,2.3886,2.3937,2.3844,2.4082,2.4089,2.4095,2.4161,2.4175,2.4187,0,0,0,0,0,2.3597,2.3678,2.3662,2.3677,2.3751,2.3815,2.3824,2.3815,2.3777,2.3815,2.3823,2.3795,2.3923,2.388,2.3896,2.3949,2.4078,2.4087,2.4094,2.4156,2.4173,2.4187,0,0,0,0,0,0,2.3658,2.3681,2.3664,2.3756,2.3784,2.3806,2.3854,2.3833,2.3872,2.3865,2.3851,2.3858,2.394,2.3952,2.3904,2.4047,2.3995,2.4006,2.4036,2.4052,2.4065,2.4059,2.3848,0,0,0,0,0,2.3683,2.3733,2.375,2.383,2.3845,2.3847,2.3875,2.3865,2.3893,2.3905,2.3918,2.3947,2.3993,2.4024,2.4067,2.4164,2.4168,2.4208,2.4221,2.4231,2.4241,2.429,2.4307,2.4125,2.4125,2.4125,0,0,2.3734,2.3752,2.3785,2.3843,2.3863,2.3915,2.3857,2.3915,2.3953,2.3913,2.3987,2.3998,2.4029,2.4116,2.4155,2.4129,2.4292,2.4241,2.425,2.4253,2.43,2.4318,2.4333,2.413,2.4129,2.4128,0,0,2.3852,2.3872,2.394,2.3961,2.3992,2.3993,2.401,2.4035,2.404,2.4114,2.4085,2.413,2.4211,2.4233,2.4255,2.4381,2.4356,2.4395,2.4463,2.4511,2.4526,2.4538,2.4581,2.4597,2.4405,2.4405,2.4405,0,2.3911,2.3988,2.3977,2.4036,2.4062,2.4029,2.4096,2.4117,2.4161,2.4179,2.415,2.4249,2.4267,2.4358,2.4388,2.4408,2.4425,2.4391,2.4524,2.4537,2.4549,2.4589,2.4606,2.441,2.4409,2.4409,2.4408,0,2.4058,2.4112,2.4163,2.4205,2.4237,2.43,2.4298,2.4331,2.4319,2.4322,2.4397,2.4418,2.4464,2.4485,2.4474,2.4574,2.4557,2.4526,2.4472,2.4571,2.4608,2.4624,2.4416,2.4414,2.4413,2.4412,0,0,2.4217,2.4252,2.4271,2.4289,2.432,2.4361,2.4423,2.4467,2.4495,2.4527,2.4576,2.4645,2.4616,2.4641,2.4632,2.4675,2.4771,2.4639,2.464,2.4661,2.488,2.4901,2.4919,2.4755,2.4758,2.4761,2.4876,0,2.4335,2.4441,2.4432,2.4532,2.4581,2.455,2.4603,2.4627,2.4633,2.4674,2.468,2.4728,2.4688,2.4702,2.4743,2.4751,2.4814,2.4743,2.48,2.4802,2.4791,2.4939,2.4962,2.507,2.4891,2.4894,2.4896,0,2.4487,2.4523,2.4627,2.465,2.467,2.4718,2.4757,2.4798,2.4825,2.4825,2.4853,2.4836,2.4897,2.4843,2.4925,2.4876,2.49,2.4907,2.4911,2.4914,2.4854,2.4945,2.5105,2.512,2.4919,2.4918,2.4916,0,2.4589,2.4664,2.4736,2.4752,2.4781,2.4815,2.4829,2.4853,2.488,2.4914,2.4931,2.4973,2.4995,2.5027,2.5022,2.4984,2.5105,2.5052,2.5106,2.5106,2.5132,2.513,2.5296,2.515,2.515,2.515,2.515,0,2.4721,2.4786,2.4782,2.4826,2.4897,2.4886,2.4957,2.4966,2.4988,2.5032,2.5009,2.5051,2.5042,2.5084,2.5081,2.5148,2.5159,2.516,2.5158,2.5161,2.516,2.5174,2.5166,2.5154,2.5153,2.5152,2.5152,0,2.4847,2.4847,2.4923,2.4944,2.495,2.5002,2.5019,2.506,2.5063,2.512,2.5132,2.5137,2.5185,2.5183,2.5238,2.5236,2.5318,2.5308,2.5308,2.5306,2.5359,2.5353,2.5538,2.5561,2.5403,2.5405,2.5406,0,2.493,2.4978,2.5004,2.5032,2.5048,2.5094,2.5121,2.5112,2.5141,2.5175,2.5211,2.5257,2.5293,2.5371,2.5379,2.542,2.541,2.5472,2.5416,2.5417,2.5408,2.5404,2.5408,2.5482,2.5484,2.5485,2.5487,0,2.5076,2.5073,2.5113,2.5153,2.5186,2.5217,2.5246,2.527,2.5264,2.5298,2.5346,2.5374,2.5429,2.5474,2.5513,2.5527,2.5505,2.5504,2.5519,2.5521,2.5518,2.5518,2.5336,2.55,2.5498,2.5497,2.5497,2.5496,2.5181,2.5223,2.5247,2.5291,2.5312,2.5339,2.5377,2.5385,2.5425,2.5469,2.5462,2.5516,2.554,2.559,2.5607,2.5648,2.5626,2.5648,2.5653,2.5658,2.5663,2.5514,2.5656,2.5656,2.5655,2.5655,2.5655,0,2.5325,2.5338,2.538,2.542,2.5455,2.5432,2.5462,2.5492,2.554,2.5564,2.56,2.5655,2.5698,2.5709,2.575,2.5781,2.5772,2.5792,2.5789,2.5792,2.5681,2.5663,2.5798,2.5798,2.5798,2.5798,2.5798,2.5798,2.5403,2.5471,2.5471,2.5548,2.5561,2.5613,2.5632,2.5656,2.5675,2.5737,2.5773,2.578,2.5799,2.5841,2.5879,2.5881,2.5896,2.592,2.5918,2.5814,2.58,2.5786,2.5769,2.5924,2.5924,2.6024,2.6025,2.6026]},{"header":{"parameterUnit":"m.s-1","parameterCategory":1,"la1":30.2991,"la2":30.254,"lo1":-89.0895,"lo2":-89.0444,"dy":0.0017,"dx":0.0017,"nx":28,"ny":28,"refTime":"2024-08-13T09:00:00:Z","depth":0,"parameterNumber":3,"parameterNumberName":"V-component_of_WINDS"},"data":[0,0,0,0,0,0,0,0,0,0,0,0,0,0,0,0,0,0,0,0,0,0,0,0,0,0,0,0,0,0,0,0,0,0,0,0,0,0,0,0,0,0,0,0,0,0,0,0,0,0,0,0,0,0,0,0,0,0,0.4051,0.4053,0,0.4198,0.42,0.4201,0.4247,0.4247,0.4246,0.4245,0.4396,0.4401,0.4406,0,0,0,0,0,0,0,0,0,0,0,0,0,0.3811,0.3815,0.4051,0.4053,0.4055,0.4198,0.42,0.4202,0.4247,0.4247,0.4246,0.4245,0.4395,0.44,0.4406,0,0,0,0,0,0,0,0,0,0,0,0,0,0.3932,0.3816,0.4051,0.4095,0.41,0.4197,0.42,0.4202,0.4248,0.4247,0.4245,0.4245,0.4393,0.44,0.4407,0.4471,0,0,0.4428,0.4431,0,0,0,0,0,0,0,0,0.3925,0.3941,0.4087,0.4092,0.4098,0.4203,0.417,0.4292,0.4248,0.4192,0.4245,0.4244,0.4333,0.4345,0.4375,0.4478,0.4485,0.4429,0.4433,0.4436,0.4438,0,0,0,0,0,0,0,0.3917,0.3935,0.4109,0.4089,0.4096,0.4107,0.4123,0.4194,0.4266,0.4196,0.42,0.4217,0.4336,0.4368,0.4379,0.4487,0.4429,0.4435,0.4439,0.4442,0.4649,0.465,0,0,0,0,0,0,0.3901,0.3928,0.4105,0.4114,0.4007,0.4112,0.413,0.4171,0.4266,0.4279,0.4218,0.4218,0.4356,0.437,0.4384,0.4465,0.4436,0.4443,0.4447,0.4648,0.4649,0.4651,0,0,0,0,0,0,0.3895,0.3916,0.4099,0.4022,0.4046,0.4118,0.4162,0.4174,0.4206,0.4282,0.4295,0.4237,0.4356,0.4374,0.4449,0.4471,0.4446,0.4452,0.4646,0.4648,0.465,0.4628,0,0,0,0,0,0,0.3888,0.3914,0.3939,0.4022,0.405,0.4161,0.4164,0.4178,0.4218,0.422,0.4303,0.4316,0.4357,0.4438,0.4456,0.448,0.4458,0.4645,0.4647,0.4649,0.4627,0.4629,0.463,0,0,0,0,0,0.388,0.3927,0.394,0.3961,0.4083,0.4162,0.4178,0.4224,0.4219,0.4245,0.4294,0.4313,0.4465,0.4445,0.4466,0.4493,0.4643,0.4646,0.4649,0.4626,0.4628,0.463,0,0,0,0,0,0,0.3846,0.3939,0.3954,0.403,0.4088,0.417,0.4204,0.4225,0.4285,0.4285,0.4339,0.4357,0.4428,0.4468,0.4443,0.4559,0.4555,0.4562,0.4531,0.4533,0.4535,0.4524,0.4464,0,0,0,0,0,0.3848,0.3904,0.3982,0.4042,0.407,0.4131,0.4168,0.4198,0.426,0.4284,0.4338,0.4398,0.4459,0.4498,0.4559,0.4632,0.4651,0.4661,0.4662,0.4663,0.4669,0.471,0.4715,0.466,0.466,0.466,0,0,0.3851,0.3909,0.3942,0.4036,0.4085,0.4142,0.4152,0.4212,0.4255,0.4294,0.4367,0.4409,0.4479,0.4552,0.4588,0.4588,0.4688,0.4667,0.4667,0.4673,0.4714,0.4719,0.4723,0.4662,0.4662,0.4662,0,0,0.3888,0.3937,0.3991,0.4039,0.4111,0.4152,0.4165,0.4243,0.4272,0.4346,0.4376,0.4428,0.4532,0.4581,0.4619,0.4671,0.4692,0.4689,0.4699,0.4738,0.4742,0.4747,0.4765,0.4771,0.4695,0.4695,0.4695,0,0.3883,0.3971,0.4017,0.4076,0.4116,0.4153,0.4208,0.4252,0.4341,0.4368,0.4367,0.4498,0.4547,0.4633,0.4645,0.4675,0.4691,0.4681,0.4738,0.4743,0.4747,0.4765,0.4772,0.4694,0.4694,0.4694,0.4694,0,0.3961,0.4021,0.4057,0.414,0.4185,0.4242,0.4297,0.4336,0.4362,0.4402,0.4477,0.4538,0.4611,0.4633,0.4659,0.4722,0.472,0.4727,0.4725,0.4751,0.4769,0.4776,0.4693,0.4693,0.4693,0.4694,0,0,0.3982,0.4089,0.4102,0.414,0.4221,0.4269,0.4327,0.4397,0.443,0.4489,0.4539,0.4626,0.4633,0.4676,0.4708,0.4742,0.4779,0.4746,0.4749,0.475,0.4852,0.4846,0.4853,0.4793,0.4794,0.4796,0.4846,0,0.4029,0.4134,0.4176,0.4261,0.4317,0.4352,0.4402,0.4457,0.4496,0.4549,0.4593,0.4653,0.4658,0.4684,0.472,0.4767,0.4801,0.4764,0.484,0.4842,0.4822,0.4863,0.4857,0.4902,0.4853,0.4855,0.4856,0,0.4097,0.4156,0.4246,0.432,0.4345,0.439,0.4458,0.4508,0.4571,0.4597,0.4644,0.4673,0.4735,0.4727,0.4813,0.4787,0.4821,0.4848,0.4851,0.486,0.4851,0.4873,0.4917,0.4924,0.4867,0.4866,0.4865,0,0.4103,0.4205,0.4272,0.4303,0.4391,0.4422,0.446,0.4522,0.4561,0.462,0.4646,0.4712,0.4748,0.4798,0.4844,0.4834,0.4925,0.4921,0.4948,0.4947,0.4967,0.4965,0.5016,0.4987,0.4987,0.4987,0.4987,0,0.4151,0.4205,0.4276,0.4317,0.4378,0.4426,0.4485,0.4526,0.458,0.463,0.4664,0.471,0.4767,0.482,0.4857,0.4922,0.4938,0.496,0.497,0.4958,0.4955,0.4981,0.4979,0.4989,0.4988,0.4988,0.4988,0,0.4168,0.4218,0.4293,0.4369,0.439,0.4431,0.4497,0.4538,0.4578,0.464,0.4657,0.472,0.4784,0.4835,0.4918,0.4943,0.5011,0.5021,0.499,0.4995,0.5019,0.5016,0.5089,0.5101,0.5063,0.5063,0.5064,0,0.4195,0.4238,0.4318,0.4353,0.4391,0.4448,0.4488,0.4536,0.4577,0.4651,0.4683,0.4749,0.4805,0.4906,0.4959,0.5023,0.5034,0.5056,0.5044,0.5031,0.5035,0.5032,0.5036,0.5057,0.5057,0.5057,0.5058,0,0.4239,0.4261,0.4317,0.4382,0.4428,0.4482,0.4536,0.4563,0.4622,0.4665,0.4731,0.4774,0.4858,0.4924,0.4993,0.5032,0.5055,0.506,0.507,0.5059,0.5039,0.505,0.4994,0.5059,0.5059,0.5059,0.5059,0.5058,0.4262,0.4301,0.4363,0.4425,0.447,0.4519,0.4562,0.4606,0.4662,0.4734,0.476,0.4827,0.4888,0.4983,0.5022,0.5076,0.5077,0.5091,0.5095,0.5097,0.5096,0.503,0.5088,0.5088,0.5088,0.5088,0.5088,0,0.4307,0.4349,0.4404,0.4479,0.4526,0.4543,0.4603,0.4642,0.4701,0.4756,0.4809,0.4884,0.4947,0.5005,0.507,0.5102,0.5114,0.5117,0.5116,0.5124,0.5091,0.5076,0.5107,0.5107,0.5107,0.5106,0.5106,0.5106,0.4336,0.4402,0.4431,0.452,0.4561,0.4627,0.466,0.4706,0.475,0.4832,0.4884,0.4921,0.4977,0.5046,0.5105,0.512,0.5142,0.5143,0.5161,0.5129,0.5127,0.5124,0.5111,0.5148,0.5148,0.519,0.5191,0.5191]}]]